[[{"header":{"parameterUnit":"m.s-1","parameterCategory":1,"la1":30.2991,"la2":30.254,"lo1":-89.0895,"lo2":-89.0444,"dy":0.0017,"dx":0.0017,"nx":28,"ny":28,"refTime":"2024-12-13T03:00:00:Z","depth":0,"parameterNumber":2,"parameterNumberName":"U-component_of_WINDS"},"data":[0,0,0,0,0,0,0,0,0,0,0,0,0,0,0,0,0,0,0,0,0,0,0,0,0,0,0,0,0,0,0,0,0,0,0,0,0,0,0,0,0,0,0,0,0,0,0,0,0,0,0,0,0,0,0,0,0,0,-2.0781,-2.0781,0,-2.0774,-2.0774,-2.0774,-2.0708,-2.0707,-2.0705,-2.0704,-2.0701,-2.0702,-2.0704,0,0,0,0,0,0,0,0,0,0,0,0,0,-2.0744,-2.0745,-2.0781,-2.0781,-2.0781,-2.0774,-2.0774,-2.0774,-2.0709,-2.0707,-2.0705,-2.0703,-2.07,-2.0702,-2.0704,0,0,0,0,0,0,0,0,0,0,0,0,0,-2.0751,-2.0745,-2.0781,-2.0748,-2.0745,-2.0774,-2.0774,-2.0774,-2.0709,-2.0707,-2.0704,-2.0702,-2.07,-2.0702,-2.0704,-2.0767,0,0,-2.0711,-2.0712,0,0,0,0,0,0,0,0,-2.0751,-2.0752,-2.0753,-2.075,-2.0747,-2.0739,-2.076,-2.0772,-2.071,-2.0723,-2.0704,-2.0701,-2.0716,-2.0717,-2.0721,-2.0767,-2.0767,-2.0711,-2.0712,-2.0713,-2.0714,0,0,0,0,0,0,0,-2.075,-2.0752,-2.0779,-2.0753,-2.0749,-2.0735,-2.0733,-2.0762,-2.0734,-2.0721,-2.0717,-2.0716,-2.0714,-2.0719,-2.072,-2.0767,-2.0711,-2.0713,-2.0714,-2.0715,-2.0865,-2.0868,0,0,0,0,0,0,-2.0754,-2.0752,-2.0779,-2.0778,-2.0742,-2.0737,-2.0735,-2.0744,-2.0733,-2.0729,-2.0719,-2.0713,-2.0716,-2.0718,-2.072,-2.0794,-2.0713,-2.0715,-2.0717,-2.0863,-2.0866,-2.0869,0,0,0,0,0,0,-2.0753,-2.0757,-2.0779,-2.0764,-2.0766,-2.074,-2.0751,-2.0746,-2.075,-2.0731,-2.0726,-2.0729,-2.0715,-2.0717,-2.0756,-2.0793,-2.0716,-2.0718,-2.086,-2.0864,-2.0867,-2.0943,0,0,0,0,0,0,-2.0752,-2.0757,-2.0779,-2.0765,-2.0767,-2.0814,-2.0753,-2.0747,-2.0754,-2.0747,-2.0739,-2.0735,-2.0713,-2.0753,-2.0758,-2.0795,-2.072,-2.0856,-2.0861,-2.0866,-2.0937,-2.0949,-2.0959,0,0,0,0,0,-2.0751,-2.0801,-2.0781,-2.0784,-2.0794,-2.0816,-2.0817,-2.0789,-2.0757,-2.078,-2.0768,-2.0735,-2.0788,-2.0757,-2.0763,-2.0801,-2.0854,-2.086,-2.0866,-2.0932,-2.0946,-2.0959,0,0,0,0,0,0,-2.0822,-2.0799,-2.0776,-2.0822,-2.0822,-2.0805,-2.0833,-2.0805,-2.0815,-2.0808,-2.0774,-2.0773,-2.0818,-2.0813,-2.0779,-2.0862,-2.0815,-2.0823,-2.0864,-2.0877,-2.0888,-2.089,-2.0722,0,0,0,0,0,-2.0843,-2.0861,-2.084,-2.0884,-2.0884,-2.0859,-2.0868,-2.0846,-2.0844,-2.0844,-2.0834,-2.0835,-2.0852,-2.0864,-2.0878,-2.0935,-2.0934,-2.0964,-2.0975,-2.0984,-2.0992,-2.1024,-2.1037,-2.0889,-2.0889,-2.0889,0,0,-2.0887,-2.0877,-2.0891,-2.0898,-2.0895,-2.0916,-2.0859,-2.0884,-2.0901,-2.0848,-2.0885,-2.0877,-2.0876,-2.0925,-2.0946,-2.0922,-2.1032,-2.0992,-2.0999,-2.1002,-2.1031,-2.1045,-2.1058,-2.0893,-2.0892,-2.0891,0,0,-2.0979,-2.0971,-2.1008,-2.1005,-2.1,-2.0983,-2.0992,-2.098,-2.0973,-2.1008,-2.097,-2.0989,-2.1018,-2.1019,-2.1024,-2.1116,-2.1088,-2.1122,-2.1181,-2.1212,-2.1224,-2.1234,-2.127,-2.1282,-2.1129,-2.1129,-2.1129,0,-2.1035,-2.1064,-2.103,-2.1058,-2.1063,-2.1015,-2.1053,-2.1052,-2.1054,-2.1059,-2.1032,-2.1068,-2.1064,-2.1113,-2.1136,-2.114,-2.1151,-2.1124,-2.1225,-2.1235,-2.1244,-2.1277,-2.129,-2.1133,-2.1133,-2.1132,-2.1132,0,-2.1134,-2.1155,-2.1185,-2.1186,-2.1194,-2.1227,-2.12,-2.1213,-2.119,-2.1176,-2.1214,-2.1207,-2.122,-2.1229,-2.1208,-2.1276,-2.1262,-2.123,-2.1183,-2.1263,-2.1294,-2.1306,-2.114,-2.1138,-2.1137,-2.1136,0,0,-2.1272,-2.1253,-2.1265,-2.1265,-2.1256,-2.1273,-2.1304,-2.1315,-2.1328,-2.133,-2.1357,-2.1382,-2.1353,-2.1358,-2.1336,-2.1364,-2.144,-2.1329,-2.1328,-2.1352,-2.1517,-2.1543,-2.1559,-2.142,-2.1422,-2.1424,-2.1518,0,-2.1362,-2.1412,-2.1383,-2.1439,-2.1459,-2.1413,-2.1441,-2.1439,-2.1427,-2.1444,-2.1431,-2.1451,-2.1409,-2.1412,-2.1437,-2.1426,-2.1473,-2.1418,-2.1447,-2.1449,-2.1452,-2.1574,-2.1601,-2.1691,-2.153,-2.1532,-2.1533,0,-2.1474,-2.148,-2.1537,-2.1525,-2.1533,-2.1558,-2.1566,-2.1582,-2.158,-2.1569,-2.1575,-2.1547,-2.1579,-2.153,-2.1575,-2.1538,-2.1548,-2.1544,-2.1547,-2.1551,-2.1498,-2.1584,-2.1719,-2.1733,-2.1552,-2.155,-2.1549,0,-2.1572,-2.1594,-2.1632,-2.1633,-2.1619,-2.1638,-2.1634,-2.1629,-2.1638,-2.1646,-2.1652,-2.1663,-2.1671,-2.1681,-2.1658,-2.1624,-2.1706,-2.1656,-2.1701,-2.1702,-2.1723,-2.1722,-2.1863,-2.1725,-2.1724,-2.1724,-2.1724,0,-2.1677,-2.1715,-2.1675,-2.1699,-2.1741,-2.1707,-2.1749,-2.174,-2.1736,-2.1759,-2.172,-2.1742,-2.1708,-2.1728,-2.171,-2.1751,-2.1754,-2.1748,-2.1743,-2.1753,-2.1754,-2.1761,-2.1756,-2.1728,-2.1727,-2.1726,-2.1726,0,-2.1795,-2.1769,-2.1808,-2.1791,-2.1788,-2.182,-2.1807,-2.1829,-2.1813,-2.1842,-2.1847,-2.1824,-2.1845,-2.1822,-2.1842,-2.183,-2.1886,-2.187,-2.1886,-2.1883,-2.1931,-2.1928,-2.2084,-2.2104,-2.195,-2.1951,-2.1952,0,-2.1864,-2.1892,-2.1878,-2.189,-2.1887,-2.1906,-2.1915,-2.1883,-2.1894,-2.1894,-2.1917,-2.1934,-2.1946,-2.1982,-2.1969,-2.1984,-2.197,-2.2024,-2.1973,-2.1982,-2.1975,-2.1974,-2.1978,-2.2035,-2.2037,-2.2039,-2.204,0,-2.1992,-2.1978,-2.1991,-2.2001,-2.2012,-2.2017,-2.2021,-2.2033,-2.1999,-2.2014,-2.2034,-2.2044,-2.2063,-2.2082,-2.2093,-2.209,-2.2061,-2.2056,-2.2068,-2.2079,-2.2089,-2.2087,-2.1918,-2.2053,-2.2052,-2.2051,-2.205,-2.2049,-2.209,-2.2113,-2.2107,-2.2124,-2.2122,-2.2126,-2.2146,-2.2133,-2.2149,-2.2161,-2.2141,-2.2168,-2.2166,-2.2178,-2.2179,-2.22,-2.2177,-2.2194,-2.2199,-2.2204,-2.2212,-2.2083,-2.2201,-2.2201,-2.2201,-2.22,-2.22,0,-2.2218,-2.2212,-2.2227,-2.2232,-2.2245,-2.2213,-2.2216,-2.223,-2.2252,-2.2252,-2.2265,-2.2289,-2.2307,-2.2295,-2.231,-2.233,-2.2317,-2.2336,-2.2335,-2.2336,-2.223,-2.222,-2.2346,-2.2346,-2.2346,-2.2346,-2.2346,-2.2346,-2.2287,-2.2325,-2.2311,-2.2348,-2.2342,-2.2366,-2.237,-2.2375,-2.2374,-2.2403,-2.2417,-2.2408,-2.2403,-2.2418,-2.2434,-2.243,-2.2439,-2.2463,-2.2455,-2.2357,-2.2343,-2.2329,-2.2319,-2.2465,-2.2465,-2.2559,-2.256,-2.2561]},{"header":{"parameterUnit":"m.s-1","parameterCategory":1,"la1":30.2991,"la2":30.254,"lo1":-89.0895,"lo2":-89.0444,"dy":0.0017,"dx":0.0017,"nx":28,"ny":28,"refTime":"2024-12-13T03:00:00:Z","depth":0,"parameterNumber":3,"parameterNumberName":"V-component_of_WINDS"},"data":[0,0,0,0,0,0,0,0,0,0,0,0,0,0,0,0,0,0,0,0,0,0,0,0,0,0,0,0,0,0,0,0,0,0,0,0,0,0,0,0,0,0,0,0,0,0,0,0,0,0,0,0,0,0,0,0,0,0,-1.2191,-1.2191,0,-1.2237,-1.2238,-1.2238,-1.2226,-1.2225,-1.2224,-1.2223,-1.2271,-1.2273,-1.2275,0,0,0,0,0,0,0,0,0,0,0,0,0,-1.2091,-1.2093,-1.2191,-1.2191,-1.2192,-1.2237,-1.2238,-1.2239,-1.2226,-1.2225,-1.2224,-1.2223,-1.227,-1.2273,-1.2275,0,0,0,0,0,0,0,0,0,0,0,0,0,-1.2135,-1.2093,-1.2191,-1.2191,-1.2192,-1.2237,-1.2238,-1.2239,-1.2227,-1.2225,-1.2224,-1.2222,-1.2269,-1.2273,-1.2276,-1.2323,0,0,-1.2285,-1.2287,0,0,0,0,0,0,0,0,-1.2133,-1.2139,-1.2191,-1.2191,-1.2192,-1.2225,-1.222,-1.2267,-1.2227,-1.2213,-1.2223,-1.2222,-1.2257,-1.2261,-1.2273,-1.2325,-1.2327,-1.2286,-1.2288,-1.2289,-1.229,0,0,0,0,0,0,0,-1.213,-1.2137,-1.2209,-1.2191,-1.2192,-1.2189,-1.2194,-1.2229,-1.2242,-1.2214,-1.2214,-1.2219,-1.2257,-1.2269,-1.2274,-1.2328,-1.2286,-1.2288,-1.229,-1.2292,-1.2422,-1.2424,0,0,0,0,0,0,-1.2126,-1.2135,-1.2208,-1.2211,-1.2158,-1.2192,-1.2197,-1.2216,-1.2242,-1.2244,-1.222,-1.2219,-1.2265,-1.227,-1.2275,-1.2333,-1.2289,-1.2292,-1.2294,-1.2421,-1.2423,-1.2424,0,0,0,0,0,0,-1.2124,-1.2133,-1.2206,-1.2172,-1.2181,-1.2195,-1.2216,-1.2217,-1.223,-1.2246,-1.2249,-1.2231,-1.2264,-1.2271,-1.2311,-1.2335,-1.2293,-1.2296,-1.2419,-1.2421,-1.2424,-1.2449,0,0,0,0,0,0,-1.2121,-1.2132,-1.2151,-1.2173,-1.2183,-1.2242,-1.2217,-1.2219,-1.2236,-1.2234,-1.2257,-1.226,-1.2263,-1.2307,-1.2315,-1.2338,-1.2299,-1.2417,-1.242,-1.2423,-1.2447,-1.2452,-1.2457,0,0,0,0,0,-1.2118,-1.2156,-1.2152,-1.2161,-1.2207,-1.2243,-1.2249,-1.2253,-1.2237,-1.2256,-1.2266,-1.2259,-1.233,-1.2311,-1.232,-1.2345,-1.2416,-1.2419,-1.2423,-1.2444,-1.2451,-1.2457,0,0,0,0,0,0,-1.2136,-1.2159,-1.2155,-1.2201,-1.222,-1.2241,-1.2265,-1.226,-1.2284,-1.2281,-1.2284,-1.2289,-1.2331,-1.2342,-1.232,-1.2392,-1.2371,-1.2376,-1.2384,-1.2391,-1.2396,-1.2394,-1.2301,0,0,0,0,0,-1.2146,-1.2173,-1.2192,-1.2231,-1.2241,-1.2251,-1.2267,-1.2268,-1.2288,-1.2296,-1.2309,-1.2329,-1.2356,-1.2374,-1.2399,-1.2447,-1.2453,-1.2469,-1.2474,-1.2478,-1.2484,-1.251,-1.2518,-1.2436,-1.2436,-1.2436,0,0,-1.2166,-1.2181,-1.2199,-1.2235,-1.225,-1.2279,-1.2258,-1.2289,-1.2311,-1.2301,-1.234,-1.2351,-1.2373,-1.2417,-1.2438,-1.2428,-1.2507,-1.2483,-1.2486,-1.2489,-1.2515,-1.2523,-1.2529,-1.2438,-1.2438,-1.2438,0,0,-1.2217,-1.2231,-1.2266,-1.2281,-1.2304,-1.2311,-1.2319,-1.234,-1.2347,-1.2386,-1.238,-1.2405,-1.2451,-1.2467,-1.2481,-1.2538,-1.2532,-1.2546,-1.2575,-1.2601,-1.2607,-1.2613,-1.2634,-1.2642,-1.2551,-1.2551,-1.2551,0,-1.2239,-1.2282,-1.2284,-1.2316,-1.2333,-1.2324,-1.236,-1.2374,-1.2404,-1.2416,-1.2403,-1.2461,-1.2476,-1.2524,-1.2538,-1.2549,-1.2559,-1.2544,-1.2606,-1.2612,-1.2617,-1.2638,-1.2645,-1.2552,-1.2552,-1.2552,-1.2552,0,-1.2308,-1.2338,-1.2364,-1.2393,-1.2412,-1.2445,-1.2452,-1.2471,-1.247,-1.2477,-1.2518,-1.2534,-1.2564,-1.2575,-1.2574,-1.2623,-1.2616,-1.2605,-1.2584,-1.2627,-1.2646,-1.2654,-1.2555,-1.2554,-1.2554,-1.2553,0,0,-1.2374,-1.2404,-1.2413,-1.2427,-1.2451,-1.2474,-1.2507,-1.2535,-1.2552,-1.2572,-1.26,-1.2639,-1.2629,-1.2645,-1.2645,-1.2668,-1.2713,-1.2654,-1.2654,-1.2665,-1.2769,-1.2779,-1.2788,-1.2708,-1.271,-1.2711,-1.2768,0,-1.2429,-1.2487,-1.249,-1.2543,-1.2571,-1.2563,-1.2591,-1.2609,-1.2617,-1.2641,-1.2649,-1.2678,-1.2661,-1.2671,-1.2693,-1.2703,-1.2734,-1.2698,-1.2735,-1.2736,-1.2732,-1.2798,-1.2808,-1.2862,-1.2775,-1.2777,-1.2777,0,-1.2501,-1.2524,-1.258,-1.26,-1.2612,-1.2638,-1.2664,-1.2687,-1.2707,-1.2711,-1.2729,-1.2726,-1.276,-1.2736,-1.2782,-1.2758,-1.2773,-1.278,-1.2782,-1.2787,-1.2761,-1.2806,-1.2878,-1.2887,-1.2789,-1.2788,-1.2787,0,-1.2545,-1.259,-1.2629,-1.2641,-1.2665,-1.2683,-1.2694,-1.2713,-1.273,-1.2752,-1.2763,-1.2789,-1.2804,-1.2824,-1.2828,-1.2811,-1.2875,-1.2852,-1.288,-1.288,-1.2896,-1.2895,-1.2973,-1.2902,-1.2902,-1.2902,-1.2902,0,-1.2606,-1.2641,-1.2649,-1.2674,-1.2713,-1.2714,-1.2753,-1.2762,-1.2779,-1.2805,-1.2799,-1.2823,-1.2827,-1.2852,-1.2855,-1.2894,-1.29,-1.2904,-1.2905,-1.2906,-1.2906,-1.2917,-1.2914,-1.2904,-1.2904,-1.2903,-1.2903,0,-1.2663,-1.267,-1.2713,-1.2732,-1.2737,-1.2765,-1.2782,-1.2805,-1.2811,-1.2845,-1.2852,-1.2863,-1.2892,-1.2898,-1.2933,-1.2935,-1.2981,-1.2977,-1.2975,-1.2975,-1.3004,-1.3001,-1.3093,-1.3106,-1.3025,-1.3026,-1.3027,0,-1.2703,-1.273,-1.2752,-1.2769,-1.2781,-1.2808,-1.2826,-1.2828,-1.2846,-1.2871,-1.2891,-1.292,-1.2943,-1.2991,-1.3001,-1.3028,-1.3026,-1.3056,-1.303,-1.303,-1.3028,-1.3027,-1.303,-1.3062,-1.3063,-1.3063,-1.3064,0,-1.2773,-1.2775,-1.28,-1.2827,-1.2848,-1.2869,-1.2888,-1.2903,-1.2907,-1.2928,-1.2958,-1.2976,-1.3012,-1.3041,-1.3067,-1.3078,-1.3072,-1.3072,-1.308,-1.3082,-1.308,-1.3083,-1.299,-1.307,-1.3069,-1.3069,-1.3069,-1.3068,-1.2824,-1.2847,-1.2867,-1.2895,-1.291,-1.2929,-1.2952,-1.2961,-1.2986,-1.3016,-1.3015,-1.3048,-1.3067,-1.3102,-1.3114,-1.314,-1.3131,-1.3143,-1.3146,-1.3149,-1.3153,-1.3074,-1.3145,-1.3145,-1.3145,-1.3145,-1.3144,0,-1.2895,-1.2907,-1.2933,-1.2961,-1.2983,-1.2975,-1.2996,-1.3015,-1.3045,-1.3063,-1.3086,-1.3121,-1.3148,-1.3161,-1.3188,-1.3207,-1.3205,-1.3214,-1.3214,-1.3216,-1.3159,-1.315,-1.3215,-1.3215,-1.3215,-1.3215,-1.3215,-1.3215,-1.2935,-1.2975,-1.2979,-1.3026,-1.3037,-1.307,-1.3083,-1.31,-1.3115,-1.3154,-1.3177,-1.3185,-1.3201,-1.3229,-1.3254,-1.3257,-1.3268,-1.3279,-1.3281,-1.3227,-1.322,-1.3213,-1.3205,-1.3281,-1.3281,-1.3336,-1.3337,-1.3337]}]]